CAPE
0 0 0 0 0 0 0 0 0 0 0 0 0 0 0 0 0 0 0 0 0 0 0 0 0 0 0 0 0 0 0 0 0 25 129 523 596 743 776 1259 808 957 1210 1024 553
0 0 0 0 0 0 0 0 0 0 0 0 0 0 0 0 0 0 0 0 0 0 0 0 0 0 0 0 0 0 0 0 0 24 65 454 475 642 805 964 1167 1234 1283 861 496
0 0 0 0 0 0 0 0 0 0 0 0 0 0 0 0 0 0 0 0 0 0 0 0 0 0 0 0 0 0 0 0 0 1 0 84 359 810 733 1001 1347 1528 922 592 365
0 0 0 0 0 0 0 0 0 0 0 0 0 0 0 0 0 0 0 0 0 0 0 0 0 0 0 0 0 0 0 0 0 0 0 0 364 908 848 972 1474 1521 819 482 274
0 0 0 0 0 0 0 0 0 0 0 0 0 0 0 0 0 0 0 0 0 0 0 0 0 0 0 0 0 0 0 0 0 0 0 0 105 630 891 1089 1632 1568 1045 747 424
0 0 0 0 0 0 0 0 0 0 0 0 0 0 0 0 0 0 0 0 0 0 0 0 0 0 0 0 0 0 0 0 0 0 0 3 99 872 864 1647 1729 1439 1292 1169 763
0 0 0 0 0 0 0 0 0 0 0 0 0 0 0 0 0 0 0 0 0 0 0 0 0 0 0 0 0 0 0 0 0 0 0 3 35 719 691 1304 1176 1220 1302 1248 1023
0 0 0 0 0 0 0 0 0 0 0 0 0 0 0 0 0 0 0 0 0 0 0 0 0 0 0 0 0 0 0 0 0 0 0 46 0 340 612 910 1071 914 802 860 859
0 0 0 0 0 0 0 0 0 0 0 0 0 0 0 0 0 0 0 0 0 0 0 0 0 0 0 0 0 0 0 0 0 0 0 1 0 6 594 815 1079 934 479 348 446
0 0 0 0 0 0 0 0 0 0 0 0 0 0 0 0 0 0 0 0 0 0 0 0 0 0 0 0 0 0 0 0 0 6 3 5 0 433 563 762 892 936 540 372 304
0 0 0 0 0 0 0 0 0 0 0 0 0 0 0 0 0 0 0 0 0 0 0 0 0 0 0 0 0 0 0 0 0 0 30 15 91 219 560 648 705 928 783 526 553
0 0 0 0 0 0 0 0 0 0 0 0 0 0 0 0 0 0 0 0 0 0 0 0 0 0 0 0 0 0 0 0 0 0 0 14 28 67 452 596 716 806 860 794 474
0 0 0 0 0 0 0 0 0 0 0 0 0 0 0 0 0 0 0 0 0 0 0 0 0 0 0 0 0 0 0 0 0 0 0 0 0 4 64 388 373 471 718 699 659
0 0 0 0 0 0 0 0 0 0 0 0 0 0 0 0 0 0 0 0 0 0 0 0 0 0 0 0 0 0 0 0 0 0 0 0 0 0 0 13 268 369 514 682 531
0 0 0 0 0 0 0 0 0 0 29 0 0 0 0 0 0 0 0 0 0 0 0 0 0 0 0 0 0 0 0 0 0 0 0 0 0 0 5 5 60 444 405 458 602
0 0 0 0 0 0 0 0 0 0 13 1 0 0 4 1 0 0 11 0 0 0 0 0 0 0 0 0 0 0 0 0 0 0 0 0 0 0 0 0 0 51 399 386 486
0 0 0 0 0 0 0 0 10 20 0 0 0 0 0 0 3 0 6 106 48 16 41 10 14 12 0 0 0 0 0 0 1 2 0 0 0 0 0 0 0 8 53 192 159
0 0 0 0 0 0 0 0 0 0 0 0 0 0 0 0 0 4 2 85 9 0 4 29 65 9 12 1 25 34 20 21 18 36 22 15 0 1 0 1 23 14 7 55 210
0 0 0 0 0 0 0 0 0 0 0 0 0 0 1 0 0 0 0 5 14 0 0 0 1 16 0 10 2 41 50 67 46 31 48 5 7 18 1 8 13 3 3 9 416
0 0 0 0 0 16 0 0 0 0 0 0 0 0 0 0 0 0 0 8 0 0 0 0 0 0 0 0 0 6 49 107 69 72 72 21 33 85 6 2 1 0 56 258 272
0 0 0 0 0 0 0 0 0 0 0 0 0 0 0 0 0 0 1 3 0 0 0 0 0 0 0 0 0 0 10 15 94 111 104 21 120 104 17 1 0 0 34 85 86
0 0 0 0 0 0 0 0 0 0 0 0 0 0 0 0 0 0 0 0 0 0 0 0 0 0 0 0 0 0 0 112 65 3 4 5 0 6 3 9 9 0 0 0 0
0 0 0 0 0 0 0 0 0 0 0 0 0 0 0 0 0 0 0 0 0 0 0 0 0 0 0 0 22 4 7 72 4 16 17 63 70 0 0 0 0 0 0 0 0
1 0 0 0 0 0 0 0 0 0 0 0 0 0 0 0 0 0 0 0 0 0 0 0 3 6 13 28 43 40 18 14 51 0 2 0 1 1 0 0 0 8 4 2 2
0 0 0 0 0 0 0 0 0 0 0 0 0 0 0 0 0 0 0 0 0 0 18 61 84 28 34 45 27 31 104 89 72 61 0 0 0 0 0 2 8 7 5 6 0
0 0 0 0 0 0 0 0 0 0 0 0 0 0 0 0 0 0 0 0 0 46 81 61 67 38 39 23 33 105 7 119 118 109 58 10 4 5 0 4 9 15 49 7 0
0 0 0 0 0 0 0 0 0 0 0 0 0 0 0 0 0 0 0 13 52 79 125 108 69 63 76 77 164 32 0 2 11 10 3 2 8 20 22 0 9 103 29 0 0
CIN
-0 -0 -0 -0 -0 -0 -0 -0 -0 -0 -0 -0 -0 -0 -0 -0 -0 -0 -0 -0 -0 -0 -0 -0 -0 -0 -0 -0 -0 -0 -0 -0 -0 -7 -7 -9 -9 -5 -18 -48 -46 -42 -7 -72 -122
-0 -0 -0 -0 -0 -0 -0 -0 -0 -0 -0 -0 -0 -0 -0 -0 -0 -0 -0 -0 -0 -0 -0 -0 -0 -0 -0 -0 -0 -0 -0 -0 -0 -12 -7 -2 -4 -11 -37 -32 -27 -8 -56 -102 -145
-0 -0 -0 -0 -0 -0 -0 -0 -0 -0 -0 -0 -0 -0 -0 -0 -0 -0 -0 -0 -0 -0 -0 -0 -0 -0 -0 -0 -0 -0 -0 -0 -0 -1 -0 -22 -4 -16 -18 -3 -2 -8 -102 -136 -143
-0 -0 -0 -0 -0 -0 -0 -0 -0 -0 -0 -0 -0 -0 -0 -0 -0 -0 -0 -0 -0 -0 -0 -0 -0 -0 -0 -0 -0 -0 -0 -0 -0 -0 -0 -0 -6 -4 -19 -2 -18 -32 -98 -122 -131
-0 -0 -0 -0 -0 -0 -0 -0 -0 -0 -0 -0 -0 -0 -0 -0 -0 -0 -0 -0 -0 -0 -0 -0 -0 -0 -0 -0 -0 -0 -0 -0 -0 -0 -0 -0 -38 -3 -5 -30 -16 -67 -92 -92 -91
-0 -0 -0 -0 -0 -0 -0 -0 -0 -0 -0 -0 -0 -0 -0 -0 -0 -0 -0 -0 -0 -0 -0 -0 -0 -0 -0 -0 -0 -0 -0 -0 -0 -0 -0 -111 -33 -3 -23 -20 -51 -93 -52 -54 -61
-0 -0 -0 -0 -0 -0 -0 -0 -0 -0 -0 -0 -0 -0 -0 -0 -0 -0 -0 -0 -0 -0 -0 -0 -0 -0 -0 -0 -0 -0 -0 -0 -0 -0 -0 -46 -53 -4 -39 -58 -112 -88 -58 -32 -38
-0 -0 -0 -0 -0 -0 -0 -0 -0 -0 -0 -0 -0 -0 -0 -0 -0 -0 -0 -0 -0 -0 -0 -0 -0 -0 -0 -0 -0 -0 -0 -0 -0 -0 -0 -30 -0 -3 -57 -96 -110 -154 -160 -120 -84
-0 -0 -0 -0 -0 -0 -0 -0 -0 -0 -0 -0 -0 -0 -0 -0 -0 -0 -0 -0 -0 -0 -0 -0 -0 -0 -0 -0 -0 -0 -0 -0 -0 -0 -0 -22 -0 -3 -87 -97 -72 -154 -259 -274 -206
-0 -0 -0 -0 -0 -0 -0 -0 -0 -0 -0 -0 -0 -0 -0 -0 -0 -0 -0 -0 -0 -0 -0 -0 -0 -0 -0 -0 -0 -0 -0 -0 -0 -4 -3 -2 -0 -23 -72 -71 -30 -74 -231 -270 -289
-0 -0 -0 -0 -0 -0 -0 -0 -0 -0 -0 -0 -0 -0 -0 -0 -0 -0 -0 -0 -0 -0 -0 -0 -0 -0 -0 -0 -0 -0 -0 -0 -0 -0 -2 -2 -17 -7 -55 -51 -21 -10 -113 -206 -197
-0 -0 -0 -0 -0 -0 -0 -0 -0 -0 -0 -0 -0 -0 -0 -0 -0 -0 -0 -0 -0 -0 -0 -0 -0 -0 -0 -0 -0 -0 -0 -0 -0 -0 -0 -2 -29 -13 -32 -26 -28 -38 -43 -119 -202
-0 -0 -0 -0 -0 -0 -0 -0 -0 -0 -0 -0 -0 -0 -0 -0 -0 -0 -0 -0 -0 -0 -0 -0 -0 -0 -0 -0 -0 -0 -0 -0 -0 -0 -0 -0 -1 -2 -6 -4 -11 -18 -21 -44 -95
-0 -0 -0 -0 -0 -0 -0 -0 -0 -0 -0 -0 -0 -0 -0 -0 -0 -0 -0 -0 -0 -0 -0 -0 -0 -0 -0 -0 -0 -0 -0 -0 -0 -0 -0 -0 -0 -0 -0 -5 -6 -26 -34 -27 -98
-0 -0 -0 -0 -0 -0 -0 -0 -0 -0 -14 -0 -0 -0 -0 -0 -0 -0 -0 -0 -0 -0 -0 -0 -0 -0 -0 -0 -0 -0 -0 -0 -0 -0 -0 -0 -0 -0 -5 -5 -4 -4 -15 -54 -53
-0 -0 -0 -0 -0 -0 -0 -0 -0 -8 -9 -1 -0 -0 -4 -1 -0 -0 -3 -0 -0 -0 -0 -0 -0 -0 -0 -0 -0 -0 -0 -0 -0 -0 -0 -0 -0 -0 -0 -0 -0 -2 -3 -22 -12
-0 -0 -0 -0 -0 -0 -0 -0 -1 -2 -0 -0 -0 -0 -0 -0 -3 -0 -4 -3 -5 -14 -5 -41 -6 -7 -8 -2 -0 -0 -0 -0 -5 -5 -0 -0 -0 -0 -0 -0 -1 -9 -6 -4 -6
-0 -0 -0 -0 -0 -0 -0 -0 -0 -0 -0 -0 -0 -0 -0 -0 -0 -3 -1 -2 -51 -0 -6 -5 -4 -49 -27 -4 -7 -5 -13 -11 -11 -12 -9 -17 -17 -16 -0 -7 -23 -37 -41 -47 -5
-0 -0 -0 -0 -0 -0 -0 -0 -0 -0 -0 -0 -0 -0 -3 -0 -0 -0 -0 -4 -5 -0 -0 -0 -4 -10 -0 -17 -20 -8 -9 -10 -18 -47 -7 -7 -11 -21 -7 -86 -67 -51 -44 -46 -9
-0 -0 -0 -0 -0 -127 -0 -0 -0 -0 -0 -0 -0 -0 -0 -0 -0 -0 -0 -30 -0 -0 -0 -0 -0 -0 -0 -0 -0 -24 -9 -9 -8 -6 -7 -9 -5 -29 -63 -1 -127 -11 -70 -55 -94
-0 -0 -0 -0 -0 -0 -0 -0 -0 -0 -0 -0 -0 -0 -0 -0 -0 -0 -1 -9 -0 -0 -0 -0 -0 -0 -0 -0 -0 -0 -18 -40 -11 -9 -3 -6 -6 -68 -111 -16 -0 -3 -114 -118 -117
-0 -0 -0 -0 -0 -0 -0 -0 -0 -0 -0 -0 -0 -0 -0 -0 -0 -0 -0 -0 -0 -0 -0 -0 -0 -0 -0 -0 -0 -0 -0 -5 -8 -11 -0 -12 -2 -97 -3 -8 -2 -0 -3 -10 -4
-0 -0 -0 -0 -0 -0 -0 -0 -0 -0 -0 -0 -0 -0 -0 -0 -0 -0 -0 -0 -0 -0 -0 -0 -0 -0 -0 -0 -6 -8 -6 -2 -10 -3 -2 -4 -13 -0 -0 -0 -1 -0 -0 -27 -0
-54 -0 -0 -0 -0 -0 -0 -0 -0 -0 -0 -0 -0 -0 -0 -0 -0 -0 -0 -0 -0 -0 -0 -0 -0 -3 -4 -7 -7 -5 -4 -4 -14 -0 -1 -0 -1 -0 -0 -0 -0 -4 -2 -3 -2
-0 -0 -0 -0 -0 -0 -0 -0 -0 -0 -0 -0 -0 -0 -0 -0 -0 -0 -0 -0 -0 -0 -43 -21 -8 -4 -3 -7 -5 -4 -5 -10 -11 -29 -0 -0 -0 -0 -0 -1 -1 -14 -4 -2 -2
-0 -0 -0 -0 -0 -0 -0 -0 -0 -0 -0 -0 -0 -0 -0 -0 -0 -0 -0 -0 -1 -50 -28 -38 -19 -5 -7 -7 -28 -6 -76 -5 -6 -4 -2 -2 -3 -3 -0 -35 -1 -3 -0 -7 -0
-0 -0 -0 -0 -0 -0 -0 -0 -0 -0 -0 -0 -0 -0 -0 -0 -0 -0 -0 -68 -53 -43 -39 -41 -27 -13 -4 -4 -3 -25 -0 -0 -6 -3 -1 -3 -2 -1 -4 -0 -10 -0 -1 -0 -0
Wind_Speed
29 29 29 29 29 29 28 28 27 26 27 27 29 29 29 30 31 18 24 25 12 16 14 8 3 3 8 13 20 16 37 37 35 30 19 12 4 9 11 8 9 11 9 13 16
28 28 29 29 29 28 27 26 27 26 27 28 28 28 29 29 31 30 24 17 16 11 6 4 5 2 5 4 13 10 38 39 34 28 20 9 9 6 10 6 9 8 11 15 15
28 28 29 28 27 27 27 26 26 26 27 28 28 28 28 28 28 16 13 13 12 8 4 10 12 6 11 8 7 8 42 35 36 29 24 19 10 6 8 9 6 4 8 13 16
28 28 29 28 27 26 26 26 27 26 26 27 27 27 27 23 18 15 15 16 11 3 8 9 2 8 16 20 18 18 15 42 36 25 24 30 14 8 12 16 2 4 7 10 12
27 27 27 27 27 26 26 26 26 26 26 26 26 25 23 16 15 16 16 15 8 4 6 4 2 3 14 20 25 30 20 30 38 30 21 26 26 13 9 11 3 4 6 6 7
26 26 27 28 27 26 26 26 25 25 24 24 23 23 18 20 18 16 13 11 10 7 9 8 7 6 16 19 25 25 23 35 24 23 25 23 22 15 10 6 3 2 4 3 3
26 27 28 28 27 26 25 24 24 23 22 22 21 20 21 16 18 12 13 16 11 8 14 13 15 15 9 23 7 30 30 26 25 24 27 19 27 17 8 7 6 5 3 3 2
27 27 27 27 26 25 24 23 22 21 20 20 19 18 18 14 14 13 12 12 11 14 17 15 12 14 11 14 18 8 22 35 13 18 20 19 29 15 10 10 9 8 8 7 5
26 26 26 26 25 24 22 22 20 17 15 15 16 12 17 13 14 11 6 10 10 11 12 15 16 17 17 24 24 10 25 13 30 9 16 18 29 21 12 13 13 10 9 9 8
25 24 21 23 22 23 23 20 18 15 14 12 13 16 15 13 17 14 7 11 12 12 12 12 12 13 22 25 32 23 19 26 14 7 11 17 21 11 13 14 15 13 12 11 10
23 21 20 22 21 21 23 15 17 16 12 19 21 22 20 16 14 12 8 7 12 12 16 10 16 18 20 18 33 37 33 28 23 16 12 13 20 15 13 16 18 19 16 16 14
16 13 17 19 19 19 18 18 20 19 18 17 18 19 18 12 15 12 8 10 12 20 15 17 21 24 20 23 24 29 30 32 31 26 24 22 21 23 16 17 17 18 18 16 15
10 11 15 18 18 13 13 20 20 20 15 16 18 21 17 10 17 13 9 9 20 23 25 25 29 19 23 25 26 27 30 31 31 26 24 29 32 29 23 17 21 20 19 18 17
14 15 15 16 15 15 14 21 22 16 14 18 20 20 15 16 14 19 13 18 21 25 27 26 26 27 24 26 26 32 26 28 32 33 35 20 37 28 26 29 21 21 20 21 19
12 12 13 13 16 11 19 23 18 12 15 18 23 18 15 19 22 15 19 17 21 27 21 28 19 21 24 26 25 31 30 32 30 31 36 36 38 36 24 27 24 22 20 19 20
14 14 15 14 12 12 15 19 15 12 17 19 21 22 18 20 21 23 18 16 21 26 26 25 27 26 27 28 27 27 30 30 30 33 41 34 37 39 32 28 30 25 18 17 18
16 16 16 11 16 13 12 14 14 19 19 20 24 24 20 24 22 26 26 26 25 30 31 23 27 19 19 25 26 26 27 35 35 32 39 30 35 40 34 30 26 30 18 13 16
16 15 15 13 9 10 12 13 19 19 22 24 25 24 18 25 26 27 30 21 22 29 32 36 34 25 29 28 33 35 31 34 46 46 46 35 37 34 19 15 12 15 16 18 8
12 16 16 15 10 13 12 21 20 21 23 25 27 23 23 26 29 31 28 25 25 29 32 37 39 42 34 31 35 35 38 37 43 44 49 49 46 49 17 17 19 19 17 18 10
11 12 24 14 8 9 19 20 18 22 24 26 25 24 29 30 30 30 27 21 27 29 33 36 46 38 44 43 38 39 38 46 43 50 50 45 43 30 21 23 22 19 15 11 8
12 13 23 11 7 15 21 19 19 23 25 24 25 26 27 28 29 28 23 22 28 31 33 36 36 42 40 38 41 41 39 38 40 38 48 46 38 28 25 23 23 18 14 10 8
12 15 25 7 18 19 21 20 18 22 24 22 23 23 25 26 26 23 25 25 27 32 37 31 33 42 40 42 38 38 42 35 38 37 33 34 41 23 23 18 22 18 14 9 7
16 18 22 12 18 20 19 19 21 22 23 23 23 23 23 22 23 22 22 23 26 33 31 32 30 44 40 33 20 37 37 36 38 43 49 51 40 31 26 26 25 20 18 12 9
15 15 18 22 21 19 18 20 18 21 20 20 20 20 21 20 15 17 18 21 28 28 25 25 29 34 40 41 39 40 42 41 34 41 46 44 43 40 39 41 40 27 16 10 6
17 17 18 19 22 20 19 18 19 20 18 20 16 21 21 20 17 14 16 21 25 20 23 23 31 33 37 39 37 37 40 40 35 29 35 45 47 39 38 39 39 28 13 4 5
18 16 17 18 18 17 18 19 20 19 17 18 19 21 19 18 19 15 15 16 17 24 24 24 27 32 36 30 33 36 32 33 30 30 34 38 42 32 32 31 25 14 7 1 1
17 16 15 16 16 15 18 18 19 18 16 16 18 19 19 22 16 12 10 11 13 17 24 21 22 31 33 34 34 24 30 30 28 27 29 34 33 27 26 25 25 25 13 4 5
Wind_Direction
323 324 326 323 323 323 325 325 328 328 328 324 305 307 301 300 289 324 296 281 310 306 315 345 40 151 173 185 187 274 235 229 225 244 289 318 315 300 309 332 344 351 12 101 111
327 326 323 323 322 325 327 326 323 323 323 307 298 298 295 295 285 248 280 304 307 318 324 338 331 329 284 243 185 203 242 233 237 257 284 304 288 294 304 341 334 1 44 102 114
328 325 322 324 325 323 324 325 319 322 317 301 296 297 293 292 289 322 325 315 313 320 303 309 313 318 294 284 225 219 226 252 250 272 270 289 287 290 296 306 331 17 85 110 119
325 324 322 322 322 327 326 315 311 313 312 305 299 302 296 304 327 336 317 313 330 348 303 305 219 304 292 279 281 274 273 243 254 282 273 266 290 285 283 299 83 73 102 111 117
329 330 331 327 325 323 316 312 308 312 313 310 312 315 319 330 323 337 321 321 335 341 304 300 180 300 297 288 278 269 279 269 257 272 284 272 271 279 269 302 29 94 116 117 115
332 331 324 319 319 317 315 314 317 319 319 318 322 322 330 314 328 331 338 346 335 326 308 303 317 312 305 295 283 279 283 262 278 272 277 273 271 270 275 282 270 162 153 140 136
323 320 314 313 314 320 321 325 326 326 328 328 328 334 318 317 323 343 336 323 329 331 302 304 309 308 319 293 308 269 277 273 274 275 270 275 266 261 251 240 250 245 235 200 193
316 315 315 314 316 323 329 332 332 335 336 336 336 340 330 343 336 329 331 339 336 324 309 308 311 306 308 314 311 298 283 264 267 271 268 274 263 256 235 223 240 242 253 253 248
317 321 321 315 324 329 334 336 345 355 3 357 352 356 335 0 342 342 348 339 341 332 328 318 302 296 298 286 288 299 282 283 276 238 271 266 269 270 219 224 237 234 246 246 250
320 326 343 337 336 333 333 347 356 14 22 26 8 340 339 342 343 344 0 327 331 331 324 316 308 301 284 276 265 282 289 282 288 240 272 267 269 253 241 236 246 242 246 248 247
325 337 346 334 337 336 328 17 7 11 22 338 336 321 321 336 350 352 13 350 328 323 309 321 297 289 291 288 274 274 281 286 287 293 267 275 273 238 244 244 249 253 254 253 254
2 14 359 348 345 347 0 359 352 348 347 358 350 347 338 343 337 344 13 326 317 303 309 305 297 295 294 294 292 287 286 283 286 288 287 282 275 272 228 248 250 254 254 248 251
51 45 11 347 347 33 28 352 345 342 358 9 6 354 358 26 339 344 347 327 306 303 296 293 291 312 300 292 291 289 287 287 287 290 285 284 281 275 259 248 264 262 256 251 246
26 20 15 2 11 17 17 345 325 358 356 9 359 356 13 4 352 343 343 314 309 304 304 298 301 297 296 291 293 287 293 290 287 285 280 279 282 276 269 268 252 260 258 253 249
140 136 121 93 261 71 347 322 344 29 337 359 358 13 14 344 335 351 340 325 312 302 313 301 309 305 297 295 295 291 294 289 290 286 283 279 280 282 279 268 260 250 257 248 242
116 110 103 86 91 53 240 283 41 11 340 354 360 350 354 350 343 341 348 346 321 308 305 302 302 306 301 301 301 304 299 294 289 287 279 282 280 280 279 279 278 275 249 253 242
111 112 100 164 15 246 209 62 14 349 354 348 343 340 345 338 340 334 329 328 322 310 304 318 303 308 306 295 304 298 294 289 285 280 281 288 281 282 285 283 278 290 254 244 233
124 123 112 126 173 163 120 59 359 358 350 344 342 340 342 342 331 332 323 324 334 320 307 299 300 307 323 306 305 297 295 291 285 284 285 290 283 286 287 274 286 279 285 292 267
144 104 88 303 129 119 70 14 7 4 355 350 345 347 341 340 336 328 326 320 326 327 314 303 291 289 303 302 302 300 290 294 293 291 285 283 284 277 297 293 297 292 283 280 250
128 117 9 275 176 125 34 18 21 6 356 350 347 347 336 335 334 332 330 339 325 327 323 307 295 299 294 297 296 294 296 290 284 284 283 285 286 296 295 297 300 296 296 283 257
95 72 1 245 166 42 13 19 20 14 5 2 356 351 349 344 342 338 339 346 336 328 324 314 304 300 301 295 295 295 293 298 287 289 283 284 287 311 288 300 300 297 292 282 268
76 33 354 126 39 29 16 17 22 11 14 18 13 7 2 358 352 349 340 339 342 334 319 322 313 301 300 299 297 293 290 296 287 287 292 290 285 301 307 315 299 299 295 279 273
30 25 18 55 19 22 31 25 20 12 13 15 14 14 11 10 4 1 355 349 344 335 332 327 320 305 304 307 314 303 300 294 291 288 278 277 285 313 318 309 295 313 289 284 261
28 26 29 26 26 24 26 20 19 18 23 24 22 26 22 20 28 11 3 0 344 340 345 341 326 314 304 303 306 302 300 296 291 282 281 279 288 297 303 306 303 299 283 267 248
12 14 19 10 15 27 32 27 20 18 27 26 32 21 20 22 23 35 13 2 355 8 355 351 330 322 313 310 309 306 308 301 294 286 284 279 282 296 299 296 302 287 292 220 226
356 10 24 22 24 33 31 21 18 22 28 24 20 15 19 19 21 14 13 17 17 357 359 3 349 336 322 321 315 314 321 316 313 306 294 285 285 294 296 306 301 309 293 262 151
2 13 13 14 23 26 19 21 20 22 27 24 16 13 14 8 16 18 28 29 23 10 359 8 7 344 330 323 318 328 324 311 323 325 316 298 292 302 296 305 311 297 310 13 314